Regional Weather Roundup
Issued by NWS

Home | Current Version | Previous Version | Text Only | Print | Product List | Glossary Off
Versions: 1 2 3 4 5 6 7 8 9 10 11 12 13 14 15 16 17 18 19 20 21 22 23 24 25 26 27 28 29 30 31 32 33 34 35 36 37 38 39 40 41 42 43 44 45 46 47 48 49 50

335
ASUS43 KDMX 240706
RWRIA

WEATHER ROUNDUP FOR IOWA
NATIONAL WEATHER SERVICE DES MOINES IA
100 AM CST TUE JAN 24 2017

NOTE: "FAIR" INDICATES FEW OR NO CLOUDS BELOW 12,000 FEET WITH NO
SIGNIFICANT WEATHER AND/OR OBSTRUCTIONS TO VISIBILITY.

* - THESE STATIONS ARE NOT NWS STATIONS...THUS NOT UNDER NWS
QUALITY CONTROL.  THEY ALSO DO NOT REPORT WEATHER SUCH
AS PRECIPITATION OR FOG.

IAZ001>003-012>014-020>022-031>034-043>046-240800-
   NORTHWEST IOWA

CITY           SKY/WX    TMP DP  RH WIND       PRES   REMARKS
CARROLL *      CLOUDY    32  32 100 SE5       29.83F WCI  27
CHEROKEE *     CLOUDY    32  31  95 S7        29.82F WCI  26
DENISON *      CLOUDY    30  28  93 SE7       29.80F WCI  23
LE MARS *      CLOUDY    32  30  93 SE6       29.82F WCI  26
ORANGE CITY *  CLOUDY    30  30 100 SE6       29.81S WCI  24
SHELDON *      CLOUDY    32  32 100 SE7       29.80F WCI  26
SIOUX CITY     CLOUDY    33  30  88 SE9       29.81F WCI  25
SPENCER        CLOUDY    32  31  96 SE3       29.83F
STORM LAKE *   CLOUDY    32  30  93 SE6       29.81F WCI  26
$$

IAZ055>058-069>071-079>083-090>094-240800-
   SOUTHWEST IOWA

CITY           SKY/WX    TMP DP  RH WIND       PRES   REMARKS
ATLANTIC *     CLOUDY    30  28  93 SE6       29.82F WCI  24
AUDUBON *      CLOUDY    30  27  86 SE5       29.83F WCI  25
CLARINDA *     CLOUDY    30  30 100 VRB6      29.85S WCI  24
COUNCIL BLFS * CLOUDY    30  30 100 E8        29.81S WCI  23
CRESTON *      CLOUDY    30  30 100 E6        29.84S WCI  24
HARLAN  *      CLOUDY    30  30 100 SE7       29.85F WCI  23
LAMONI         CLOUDY    31  28  89 SE3       29.83F
RED OAK *      CLOUDY    30  30 100 E7        29.83F WCI  23
SHENANDOAH *   CLOUDY    30  28  93 E9        29.83S WCI  22
$$

IAZ047>049-059>061-072>074-084-240800-
   CENTRAL IOWA

CITY           SKY/WX    TMP DP  RH WIND       PRES   REMARKS
AMES           CLOUDY    33  29  85 CALM      29.85F
ANKENY *       CLOUDY    32  30  93 CALM      29.87S
BOONE *        CLOUDY    32  28  86 CALM      29.84S
CHARITON *     CLOUDY    30  30 100 S5        29.85S WCI  25
DES MOINES     CLOUDY    33  27  78 VRB5      29.85F WCI  29
GRINNELL*      CLOUDY    32  29  89 CALM      29.86F
KNOXVILLE *    CLOUDY    32  28  86 CALM      29.84F
MARSHALLTOWN   CLOUDY    33  29  85 CALM      29.85F
NEWTON *       CLOUDY    32  28  86 CALM      29.85F
PELLA *        CLOUDY    32  29  90 NE3       29.87F
PERRY *        CLOUDY    33  29  86 CALM      29.84F
$$

IAZ004>006-015-016-023>025-035-036-240800-
   NORTH CENTRAL IOWA

CITY           SKY/WX    TMP DP  RH WIND       PRES   REMARKS
ALGONA *       CLOUDY    32  32 100 CALM      29.84F
CLARION *      CLOUDY    32  32 100 CALM      29.85F
ESTHERVILLE    CLOUDY    31  30  96 SE3       29.83F
FORT DODGE *   CLOUDY    30  28  93 CALM      29.85F
MASON CITY     CLOUDY    31  28  89 CALM      29.85F
FOREST CITY *  CLOUDY    32  32 100 CALM      29.84F
WEBSTER CITY * CLOUDY    32 N/A N/A CALM      29.83F
IOWA FALLS *   CLOUDY    33  31  92 CALM      29.86F
$$

IAZ007>011-017>019-026>030-037>042-050>054-066-240800-
   NORTHEAST IOWA

CITY           SKY/WX    TMP DP  RH WIND       PRES   REMARKS
CEDAR RAPIDS   CLOUDY    32  28  85 CALM      29.85F
CHARLES CITY * CLOUDY    32  32 100 CALM      29.85F
CLINTON *      CLOUDY    33  32  96 W6        29.86S WCI  28
DECORAH *      CLOUDY    32  30  93 CALM      29.83F
DUBUQUE        CLOUDY    32  30  92 W5        29.85R WCI  27
MONTICELLO *   CLOUDY    34  30  86 W3        29.86S
OELWEIN *      CLOUDY    32  28  86 CALM      29.86S
WATERLOO       CLOUDY    32  28  85 CALM      29.86S
$$

IAZ064-065-067-068-078-240800-
   EAST CENTRAL IOWA

CITY           SKY/WX    TMP DP  RH WIND       PRES   REMARKS
DAVENPORT      CLOUDY    33  31  92 W6        29.86S WCI  28
IOWA CITY      CLOUDY    34  29  82 CALM      29.89S
MUSCATINE *    CLOUDY    34  30  86 W8        29.89R WCI  27
QUAD CITIES    CLOUDY    35  31  85 W5        29.86S WCI  31
$$

IAZ062-063-075>077-085>089-095>099-240800-
   SOUTHEAST IOWA

CITY           SKY/WX    TMP DP  RH WIND       PRES   REMARKS
BURLINGTON     CLOUDY    33  30  88 SW3       29.87F
FAIRFIELD *    CLOUDY    32  28  86 N5        29.86F WCI  27
FORT MADISON * CLOUDY    34  30  86 N6        29.88F WCI  29
KEOKUK *       CLOUDY    34 N/A N/A CALM      29.87F
OSKALOOSA *    CLOUDY    31  29  90 CALM      29.85F
CENTERVILLE *  CLOUDY    32  32 100 CALM      29.86F
OTTUMWA        CLOUDY    32  27  81 CALM      29.84F
WASHINGTON *   CLOUDY    32  30  93 NW5       29.89F WCI  27
$$

ABBREVIATIONS USED IN REMARKS
   TC - TEMPERATURES IN CELSIUS
  WCI - WIND CHILL INDEX
   HX - HEAT INDEX
  VSB - VISIBILITY
$$





USA.gov is the U.S. government's official web portal to all federal, state and local government web resources and services.